Время (UTC), дата Ветер
(°,м/с) 
Видим.   Явления Облачность Т
(°С)
Тd
(°С)
f(%) Тe
(°С)
Pmin
(гПа)
dP
(гПа)
Po
(мм)
O2
(г/м3)
Тmin Tmax R s Состояние
почвы
00 01.08.10 080 (В) 10 км    ясно 
+23.5 +8.8 39 +24  1015.8  -0.3  755  279           
03 01.08.10 080 (В) 10 км    ясно 
+24.9 +8 34 +25  1016.4  0.6  756  278           
06 01.08.10 080 (В) 10 км    ясно 
+29.7 +12 34 +33  1016  -0.3  756  272  +22.5         
09 01.08.10 090 (В) 10 км    ясно 
+36.6 +6.3 16 +37  1014.7  -1.1  755  267           
12 01.08.10 110 (В) 10 км    ясно 
+40.1 +6 13 +40  1012.8  -1.8  753  264           
15 01.08.10 110 (В) 10 км    ясно 
+37.6 +6 14 +38  1011.9  -0.9  753  266           
18 01.08.10 090 (В) 10 км    ясно 
+30.4 +8.8 26 +30  1012.5  0.4  753  272    +40.1       
21 01.08.10 070 (В) 10 км    ясно 
+26.9 +9.2 33 +27  1012.6  753  275           
00 02.08.10 070 (В) 10 км    ясно 
+23.4 +10.6 44 +25  1012.8  0.1  753  278           
03 02.08.10 080 (В) 10 км    ясно 
+25.1 +9.6 37 +26  1013.5  0.7  754  276           
06 02.08.10 090 (В) 10 км    ясно 
+30.3 +11.2 31 +33  1013.5  0.2  754  271  +23.3         
09 02.08.10 110 (В) 10 км    ясно 
+36.5 +8.7 18 +37  1011.8  -1.5  753  266           
12 02.08.10 110 (В) 10 км    ясно 
+37.7 +4.8 13 +38  1010.5  -1.3  752  265           
15 02.08.10 090 (В) 10 км    ясно 
+36 +7.3 17 +36  1009.6  -0.9  751  266           
18 02.08.10 060 (СВ) 10 км    ясно 
+29.8 +6.4 23 +30  1009.8  751  272    +38       
21 02.08.10 070 (В) 10 км    ясно 
+26 +10 37 +27  1010  0.1  751  275           
00 03.08.10 070 (В) 10 км    ясно 
+25.1 +7.4 32 +25  1009.5  -0.5  751  276           
03 03.08.10 080 (В) 10 км    ясно 
+24.5 +7.6 34 +25  1010.2  0.6  751  277           
06 03.08.10 080 (В) 10 км    ясно 
+29.2 +10.4 31 +31  1010.8  0.8  752  272  +22.5         
09 03.08.10 100 (В) 10 км    ясно 
+37 +3.8 13 +37  1009.5  -1.1  751  266           
12 03.08.10 090 (В) 10 км    ясно 
+38.2 +3.9 12 +38  1008.1  -1.4  750  265           
15 03.08.10 090 (В) 10 км    ясно 
+36.5 +6.6 16 +37  1007.2  -0.9  749  265           
18 03.08.10 050 (СВ) 10 км    ясно 
+30.1 +6.6 23 +30  1007.4  749  271    +38.7       
21 03.08.10 080 (В) 10 км    4/0 средняя 
[Ac trans]
+29 +7.9 27 +29  1007  -0.4  749  272           
00 04.08.10 070 (В) 10 км    ясно 
+24.2 +10.7 43 +26  1007.3  0.2  749  275           
03 04.08.10 080 (В) 10 км    ясно 
+24.4 +9.7 39 +25  1008.7  1.4  750  276           
06 04.08.10 110 (В) 10 км    ясно 
+30.4 +9.6 27 +31  1009  0.4  750  270  +21.8         
09 04.08.10 110 (В) 10 км    ясно 
+36 +10.2 21 +37  1008.4  -0.4  750  265           
12 04.08.10 100 (В) 10 км    ясно 
+37.6 +7.3 16 +38  1007.3  -1.1  749  264           
15 04.08.10 100 (В) 4{15}  10 км    ясно 
+36.4 +4 13 +36  1006.5  -0.8  749  266           
18 04.08.10 060 (СВ) 3{15}  10 км    3/0 верхняя 
[Ci fib]
+30.6 +3.6 18 +31  1007.3  0.7  749  271    +38       
21 04.08.10 060 (СВ) 10 км    ясно 
+25.5 +5.6 28 +26  1007.5  0.1  749  275           
00 05.08.10 060 (СВ) 10 км    ясно 
+24 +5.4 30 +24  1008.1  0.5  750  277           
03 05.08.10 080 (В) 10 км    ясно 
+24 +7.6 35 +24  1008.9  0.8  750  277           
06 05.08.10 080 (В) 10 км    ясно 
+29.3 +10.7 32 +31  1010.1  1.4  751  272  +21.7         
09 05.08.10 100 (В) 10 км    ясно 
+36.4 +5.6 15 +36  1009.9  751  266           
12 05.08.10 100 (В) 10  10 км    ясно 
+39 +4.4 12 +39  1009.3  -0.6  751  264           
15 05.08.10 100 (В) 10 км    ясно 
+37.4 +4.5 13 +37  1009.2  -0.1  751  265           
18 05.08.10 070 (В) 10 км    ясно 
+29.9 +8.5 26 +30  1010.7  1.3  752  272    +39.3       
21 05.08.10 070 (В) 10 км    ясно 
+28.6 +9.7 31 +29  1011.7  0.9  752  273           
00 06.08.10 070 (В) 10 км    ясно 
+27.4 +8.6 31 +27  1012.4  0.7  753  274           
03 06.08.10 080 (В) 10 км    ясно 
+26.6 +9.2 33 +27  1013.5  1.1  754  275           
06 06.08.10 080 (В) 10 км    ясно 
+29.7 +11.6 33 +33  1014.2  0.8  754  272  +26.4         
09 06.08.10 080 (В) 10 км    ясно 
+35.6 +10.4 22 +37  1013.8  -0.3  754  267           
12 06.08.10 090 (В) 10 км    ясно 
+37.7 +7.7 16 +38  1013.2  -0.5  754  266           
15 06.08.10 070 (В) 10 км    ясно 
+35.4 +7.6 18 +35  1012.7  -0.6  753  268           
18 06.08.10 070 (В) 10 км    ясно 
+27.8 +7.4 28 +28  1013.1  0.2  753  274    +37.7       
21 06.08.10 050 (СВ) 10 км    ясно 
+28 +6.6 26 +28  1013.2  0.1  754  274           
00 07.08.10 060 (СВ) 10 км    ясно 
+25.8 +8 32 +26  1013.2  754  276           
03 07.08.10 060 (СВ) 10 км    ясно 
+24.1 +10.4 42 +26  1013.9  0.6  754  277           
06 07.08.10 090 (В) 10 км    ясно 
+29 +13.5 39 +35  1015.2  1.4  755  272  +24.1         
09 07.08.10 090 (В) 10 км    ясно 
+37.1 +7.7 17 +37  1014.5  -0.4  755  267           
12 07.08.10 090 (В) 10 км    ясно 
+39.2 +3.6 11 +39  1013.6  -0.9  754  265           
15 07.08.10 070 (В) 10 км    ясно 
+36.7 +5.7 15 +37  1013.1  -0.6  754  267           
18 07.08.10 040 (СВ) 10 км    ясно 
+31.9 +3.7 17 +32  1013.6  0.4  754  271    +39.4       
21 07.08.10 070 (В) 10 км    ясно 
+29.9 +7.1 24 +30  1013.7  0.1  754  273           
00 08.08.10 060 (СВ) 10 км    ясно 
+27 +8.6 31 +27  1013.7  -0.1  754  275           
03 08.08.10 060 (СВ) 10 км    ясно 
+25.6 +8.2 33 +26  1013.8  754  276           
06 08.08.10 060 (СВ) 10 км    ясно 
+33.4 +9.2 23 +33  1013.6  0.1  754  269  +25.4         
09 08.08.10 070 (В) 10 км    ясно 
+38.9 +5.4 13 +39  1012.9  -0.6  754  265           
12 08.08.10 100 (В) 10 км    4/0 средняя 
[Ac trans]
+39.2 +4.9 12 +39  1011.9  -1  753  265           
15 08.08.10 070 (В) 10 км    ясно 
+36.7 +7.4 17 +37  1011.5  -0.4  752  266           
18 08.08.10 070 (В) 10 км    ясно 
+31.1 +8 24 +31  1012.5  0.8  753  271    +39.5       
21 08.08.10 070 (В) 10 км    ясно 
+25.7 +9 35 +26  1012.9  0.3  753  276           
00 09.08.10 060 (СВ) 10 км    ясно 
+24.9 +8.7 36 +25  1012.6  -0.4  753  277           
03 09.08.10 060 (СВ) 10 км    3/0 верхняя 
[Ci fib]
+24.5 +8.9 37 +25  1012.5  -0.1  753  277           
06 09.08.10 050 (СВ) 10 км    ясно 
+31.6 +9.8 26 +32  1012.3  0.1  753  270  +23.8         
09 09.08.10 060 (СВ) 10 км    ясно 
+37.1 +9.8 19 +38  1011.3  -0.8  752  265           
12 09.08.10 080 (В) 10 км    5/0 верхняя 
[Ci fib]
+37.5 +9.4 18 +38  1010.3  -1  752  265           
15 09.08.10 060 (СВ) 10 км    3/0 верхняя 
[Ci fib]
+36.2 +7.3 17 +36  1009.4  -0.9  751  266           
18 09.08.10 050 (СВ) 10 км    ясно 
+29.7 +9.1 28 +30  1010.3  0.7  751  272    +37.6       
21 09.08.10 070 (В) 10 км    ясно 
+29.7 +7 24 +30  1010.2  -0.1  751  272           
00 10.08.10 070 (В) 10 км    1/0 средняя 
[Ac trans]
+26.2 +9.2 34 +26  1010.7  0.4  752  275           
03 10.08.10 080 (В) 10 км    1/0 средняя 
[Ac trans]
+24.5 +9.3 38 +25  1011.6  0.8  752  277           
06 10.08.10 080 (В) 10 км    ясно 
+31.1 +10.6 28 +33  1012.1  0.7  753  270  +23.8         
09 10.08.10 090 (В) 10 км    ясно 
+37.3 +9.8 19 +38  1011.5  -0.4  752  265           
12 10.08.10 100 (В) 10 км    3/0 верхняя 
[Ci fib]
+39.4 +5.2 12 +39  1010.2  -1.3  752  264           
15 10.08.10 080 (В) 10 км    3/0 верхняя 
[Ci fib]
+37.5 +6.6 15 +38  1009.4  -0.8  751  265           
18 10.08.10 050 (СВ) 10 км    ясно 
+30.4 +7.7 24 +30  1010.3  0.7  751  271    +39.5       
21 10.08.10 060 (СВ) 10 км    ясно 
+27.9 +7 27 +28  1010.5  0.1  752  274           
00 11.08.10 060 (СВ) 10 км    ясно 
+24 +11.3 45 +27  1011  0.4  752  276           
03 11.08.10 090 (В) 10 км    6/0 средняя, верхняя 
[As op|Ci fib]
+24.5 +10.6 42 +26  1012  753  276           
06 11.08.10 080 (В) 10 км    4/0 верхняя 
[Ci fib]
+30.9 +11.6 31 +34  1012.5  0.7  753  271  +22.4         
09 11.08.10 090 (В) 10 км    3/0 верхняя 
[Ci fib]
+37.8 +6.1 14 +38  1011.9  -0.4  753  266           
12 11.08.10 090 (В) 10 км    3/0 верхняя 
[Ci fib]
+39.3 +6.2 13 +39  1011  -0.9  752  264           
15 11.08.10 070 (В) 10 км    3/0 средняя, верхняя 
[Ac trans|Ci fib]
+37.4 +6.9 15 +37  1010.2  -0.8  752  265           
18 11.08.10 060 (СВ) 10 км    3/0 средняя, верхняя 
[Ac trans|Ci fib]
+29.5 +7.4 25 +30  1010.9  0.4  752  272    +39.3       
21 11.08.10 060 (СВ) 10 км    4/1 1000 м кучево-дожд., средняя 
[Cb calv|Ac trans]
+29.8 +6.7 23 +30  1010.9  -0.1  752  272           
00 12.08.10 080 (В) 10 км    4/0 средняя 
[Ac trans]
+29.1 +8.4 27 +29  1011.1  0.2  752  272           
03 12.08.10 090 (В) 10 км    1/0 средняя 
[Ac trans]
+26.6 +8.7 32 +27  1012.1  0.9  753  275           
06 12.08.10 070 (В) 10 км    3/0 средняя, верхняя 
[Ac trans|Ci fib]
+30.8 +12 32 +35  1012.4  0.4  753  270  +26         
09 12.08.10 080 (В) 10 км    6/0 верхняя 
[Ci fib]
+37.1 +11.4 21 +40  1012.4  0.2  753  265           
12 12.08.10 080 (В) 10 км    8/0 средняя, верхняя 
[Ac trans|Ci fib]
+39.2 +6.6 14 +39  1011.4  -0.9  752  264           
15 12.08.10 080 (В) 10 км    5/0 верхняя 
[Ci fib]
+36.6 +8 17 +37  1010.8  -0.5  752  266           
18 12.08.10 050 (СВ) 10 км  зарница  8/3 1000 м кучево-дожд., средняя, верхняя 
[Cb cap|Ac trans|Ci fib]
+33.9 +7.5 20 +34  1011.1  0.2  752  268    +39.7       
21 12.08.10 220 (ЮЗ) 10 км  слаб. ливневой дождь{гроза}  9/4 1000 м кучево-дожд., средняя 
[Cb cap|Ac trans]
+25.1 +18.8 68 +41  1014.7  3.4  755  274           
00 13.08.10 040 (СВ) 10 км  гроза без осадков{ливн. осадки}  9/5 1200 м кучево-дожд., средняя 
[Cb cap|Ac trans]
+23.2 +18.4 74 +38  1014.4  -0.4  754  276           
03 13.08.10 070 (В) 10 км  {гроза}  9/3 1000 м кучево-дожд., средняя 
[Cb calv|Ac trans]
+23.8 +17.7 69 +37  1014.8  0.4  755  276           
06 13.08.10 010 (С) 10 км  {гроза}  9/4 1000 м кучево-дожд., средняя 
[Cb calv|Ac trans]
+30 +16.4 44 +41  1014.7  0.1  755  271  +22.2       
09 13.08.10 070 (В) 10 км    9/0 средняя 
[Ac trans]
+34.2 +14.7 31 +42  1014.7  0.1  755  267           
12 13.08.10 100 (В) 10 км    9/0 средняя, верхняя 
[Ac trans|Ci fib]
+37.3 +9.9 19 +38  1014.4  -0.2  755  266           
15 13.08.10 140 (ЮВ) 10 км    9/0 средняя, верхняя 
[Ac trans|Ci fib]
+35.5 +6.3 16 +36  1014  -0.5  754  268           
18 13.08.10 030 (СВ) 10 км    8/0 средняя 
[Ac trans]
+30.6 +9.9 28 +32  1015.1  755  272    +37.3       
21 13.08.10 020 (С) 10 км    4/0 средняя 
[Ac trans]
+28.2 +10.1 32 +29  1014.9  -0.3  755  274           
00 14.08.10 040 (СВ) 10 км    5/0 средняя, верхняя 
[Ac trans|Ci fib]
+26.6 +10 35 +28  1014.8  -0.1  755  275           
03 14.08.10 060 (СВ) 10 км    8/0 средняя, верхняя 
[Ac trans|Ci fib]
+24.3 +10.7 42 +26  1015.5  0.6  755  278           
06 14.08.10 070 (В) 10 км    4/0 средняя, верхняя 
[Ac trans|Ci fib]
+30.7 +8.9 26 +31  1016  0.7  756  272  +23.4         
09 14.08.10 090 (В) 10 км    8/0 средняя, верхняя 
[Ac trans|Ci]
+35.7 +4.3 14 +36  1015.6  -0.3  755  269           
12 14.08.10 090 (В) 10 км    5/0 средняя, верхняя 
[Ac trans|Ci fib]
+37.8 +2.9 11 +38  1014.7  -0.8  755  267           
15 14.08.10 060 (СВ) 10 км    5/0 средняя, верхняя 
[Ac trans|Ci fib]
+34.4 +7.5 19 +34  1014.1  -0.7  754  269           
18 14.08.10 030 (СВ) 10 км    8/0 средняя, верхняя 
[Ac trans|Ci fib]
+31.6 +8.3 24 +32  1014.6  0.4  755  271    +37.8       
21 14.08.10 010 (С) 10 км    8/0 средняя, верхняя 
[Ac trans|Ci fib]
+28.5 +9.6 31 +29  1014.9  0.2  755  274           
00 15.08.10 020 (С) 10 км    8/0 верхняя 
[Ci fib]
+26.8 +10.2 35 +28  1014.6  -0.3  755  275           
03 15.08.10 040 (СВ) 10 км    8/0 верхняя 
[Ci fib]
+24.8 +10.4 40 +26  1015.1  0.4  755  277           
06 15.08.10 060 (СВ) 10 км    5/0 верхняя 
[Ci fib]
+30.3 +12.6 34 +35  1015.3  0.4  755  272  +24.6         
09 15.08.10 070 (В) 10 км    4/0 верхняя 
[Ci fib]
+35 +12.3 25 +39  1015  -0.2  755  267           
12 15.08.10 080 (В) 10 км    4/0 верхняя 
[Ci fib]
+36.4 +10.5 21 +38  1014.3  -0.7  755  266           
15 15.08.10 080 (В) 10 км    1/0 верхняя 
[Ci fib]
+34 +11.5 25 +37  1014.1  -0.2  754  268           
18 15.08.10 060 (СВ) 10 км    ясно 
+28.3 +10.5 33 +30  1014.9  0.6  755  274    +36.7       
21 15.08.10 070 (В) 10 км    ясно 
+27.7 +7.9 29 +28  1016  1.1  756  275           
00 16.08.10 080 (В) 10 км    ясно 
+24 +8.6 37 +24  1016.4  0.3  756  279           
03 16.08.10 050 (СВ) 10 км    ясно 
+23 +7.1 36 +23  1016.8  0.3  756  280           
06 16.08.10 080 (В) 10 км    ясно 
+28.9 +6.5 24 +29  1017  0.4  756  275  +22.1         
09 16.08.10 080 (В) 10 км    ясно 
+32.3 +6.6 20 +32  1016.2  -0.7  756  271           
12 16.08.10 070 (В) 10 км    1/0 средняя 
[Ac trans]
+34.1 +7.1 19 +34  1015.4  -0.7  755  269           
15 16.08.10 050 (СВ) 10 км    4/0 верхняя 
[Ci fib]
+31.7 +7.1 22 +32  1014.5  -1  755  271           
18 16.08.10 050 (СВ) 10 км    4/0 верхняя 
[Ci fib]
+25.3 +7.3 32 +25  1015.4  0.7  755  277    +34.1       
21 16.08.10 060 (СВ) 10 км    5/0 верхняя 
[Ci fib]
+23.2 +5 31 +23  1014.9  -0.5  755  280           
00 17.08.10 010 (С) 10 км    5/0 верхняя 
[Ci fib]
+21.2 +5.3 35 +21  1014.5  -0.5  754  281           
03 17.08.10 070 (В) 10 км    4/0 верхняя 
[Ci fib]
+20.1 +4.7 36 +20  1014.6  0.1  754  282           
06 17.08.10 060 (СВ) 10 км    ясно 
+26.7 +5.4 26 +27  1014.8  0.4  755  276  +18.6         
09 17.08.10 120 (ЮВ) 10 км    ясно 
+32.1 +3.4 16 +32  1013.8  -0.9  754  271           
12 17.08.10 130 (ЮВ) 10 км    ясно 
+33.4 +1.9 14 +33  1011.8  -1.9  753  270           
15 17.08.10 070 (В) 10 км    4/0 верхняя 
[Ci fib]
+31.8 +2.9 16 +32  1011.1  -0.8  752  271           
18 17.08.10 050 (СВ) 10 км    4/0 верхняя 
[Ci fib]
+25.6 +2.8 23 +26  1010.6  -0.6  752  276    +33.8       
21 17.08.10 070 (В) 10 км    ясно 
+22.7 +3.3 28 +23  1010.3  -0.4  751  279           
00 18.08.10 050 (СВ) 10 км    ясно 
+20.6 +3.4 32 +21  1009.7  -0.7  751  281           
03 18.08.10 060 (СВ) 10 км    4/0 верхняя 
[Ci fib]
+20.2 +3.6 33 +20  1009.1  -0.6  750  281           
06 18.08.10 070 (В) 10 км    8/0 верхняя 
[Ci]
+28.2 +4.4 22 +28  1008.6  -0.2  750  273  +18.6         
09 18.08.10 100 (В) 10 км    8/0 верхняя 
[Ci]
+32.4 +2.1 15 +32  1007.4  -1.1  749  270           
12 18.08.10 080 (В) 10 км    9/0 средняя, верхняя 
[Ac trans|Ci]
+34.3 +1.9 13 +34  1005.7  -1.6  748  268           
15 18.08.10 070 (В) 10 км    9/0 средняя, верхняя 
[Ac trans|Ci fib]
+32.3 +4.2 17 +32  1004.4  -1.3  747  269           
18 18.08.10 130 (ЮВ) 10 км    6/0 верхняя 
[Ci fib]
+24.6 +6.5 31 +25  1005.6  748  275    +34.3       
21 18.08.10 280 (З) 10 км    5/0 верхняя 
[Ci fib]
+23.6 +9.9 42 +25  1005.7  0.1  748  276           
00 19.08.10 280 (З) 10 км    5/0 верхняя 
[Ci fib]
+22 +14.9 64 +31  1005.7  -0.1  748  276           
03 19.08.10 310 (СЗ) 10 км    8/0 средняя, верхняя 
[Ac trans|Ci fib]
+21.8 +13.1 58 +27  1005.9  0.2  748  277           
06 19.08.10 290 (З) 10 км    9/1 1000 м кучево-дожд., средняя 
[Cb calv|Ac trans]
+25.2 +13.8 49 +32  1007.1  749  274  +21.7         
09 19.08.10 270 (З) 10 км    4/0 верхняя 
[Ci fib]
+30.4 +11.3 31 +33  1006.6  -0.4  749  269           
12 19.08.10 280 (З) 10 км    5/3 1000 м верхняя 
[Cu med, cong|Ci fib]
+32 +11.6 29 +35  1005.2  -1.3  748  268           
15 19.08.10 290 (З) 10 км    6/1 1000 м кучево-дожд., средняя 
[Cb calv|Ac trans]
+28.1 +16.5 49 +40  1005.8  0.5  748  270           
18 19.08.10 270 (З) 10 км    8/3 1000 м кучево-дожд., средняя, верхняя 
[Cb calv|Ac trans|Ci fib]
+26.3 +19.5 66 +44  1007.2  1.4  749  271    +32.1       
21 19.08.10 310 (СЗ) 10 км    8/1 1000 м кучево-дожд., средняя 
[Cb calv|Ac trans]
+24.4 +9.7 39 +25  1008.2  0.9  750  276           
00 20.08.10 300 (СЗ) 10 км    4/0 средняя 
[Ac trans]
+22.8 +9 41 +23  1009.1  0.8  750  278           
03 20.08.10 280 (З) 10 км    3/0 средняя 
[Ac trans]
+20.5 +9.5 49 +21  1010  0.8  751  280           
06 20.08.10 260 (З) 10 км    6/0 средняя 
[Ac trans]
+25.6 +11.5 41 +29  1009.8  751  275  +20.5         
09 20.08.10 260 (З) 10 км  {ливн. осадки}  5/3 1000 м кучево-дожд., средняя 
[Cb calv|Ac trans]
+28.2 +10.3 33 +30  1008.3  -1.4  750  272           
12 20.08.10 330 (СЗ) 10-15{20}  10 км  гроза без осадков{ливн. осадки}  6/4 1000 м кучево-дожд., средняя, верхняя 
[Cb cap|Ac trans|Ci fib]
+23 +14.1 57 +30  1008.9  0.4  750  276           
15 20.08.10 310 (СЗ) 5{15}  10 км  гроза без осадков  6/3 1000 м кучево-дожд., средняя, верхняя 
[Cb cap|Ac trans|Ci fib]
+24.5 +12.4 47 +29  1008.8  750  275           
18 20.08.10 тихо ()   10 км  {гроза, ливн. осадки}  3/0 средняя 
[Ac trans]
+17.4 +11.8 70 +21  1011.2  2.1  752  283    +29.2  0.0     
21 20.08.10 290 (З) 10 км    4/0 средняя 
[Ac trans]
+18.6 +10.5 59 +22  1011.8  0.7  752  282           
00 21.08.10 310 (СЗ) 10 км    4/0 средняя 
[Ac trans]
+18.6 +9.1 54 +19  1011.8  752  282           
03 21.08.10 320 (СЗ) 10 км    8/0 средняя 
[Ac trans]
+16.9 +10.4 66 +19  1012.9  753  284           
06 21.08.10 340 (С) 10 км    8/0 средняя, верхняя 
[Ac lent|Ci fib]
+19.7 +12.3 62 +24  1014.8  755  281  +16.1    0.4     
09 21.08.10 360 (С) 10 км    9/5 900 м кучево-дожд., средняя 
[Cb calv|Ac trans]
+19.5 +13.2 67 +26  1016.6  1.8  756  282           
12 21.08.10 360 (С) 10 км    5/4 600 м средняя 
[Cu hum|Ac trans]
+21 +10 49 +22  1017.2  0.6  756  281           
15 21.08.10 350 (С) 10 км    1/1 600 м 
[Cu med, cong]
+21 +5 35 +21  1017.8  0.6  757  282           
18 21.08.10 350 (С) 10 км    ясно 
+16.5 +5.2 47 +17  1019.8  1.8  758  287    +21.8       
21 21.08.10 340 (С) 10 км    ясно 
+14.6 +4.3 50 +15  1020.6  0.7  759  290           
00 22.08.10 010 (С) 10 км    ясно 
+13.9 +3.9 51 +14  1020.3  -0.3  758  290           
03 22.08.10 тихо ()   10 км    ясно 
+10.3 +4.2 66 +10  1020.7  0.3  759  294           
06 22.08.10 360 (С) 10 км    ясно 
+19.8 +3.3 34 +21  1021.1  0.7  759  285  +9.5         
09 22.08.10 070 (В) 10 км    ясно 
+22.1 +2.8 28 +22  1020  -1  758  282           
12 22.08.10 010 (С) 10 км    ясно 
+24.8 +2.9 24 +25  1018.3  -1.6  757  279           
15 22.08.10 340 (С) 10 км    ясно 
+24.3 +2.7 24 +24  1017.4  -0.9  757  280           
18 22.08.10 320 (СЗ) 10 км    ясно 
+19.4 +7.4 46 +20  1018.5  0.9  757  284    +25       
21 22.08.10 040 (СВ) 10 км    ясно 
+17.1 +3.8 41 +18  1018.6  757  287           
00 23.08.10 040 (СВ) 10 км    ясно 
+14.3 +4.4 51 +16  1018.5  -0.1  757  289           
03 23.08.10 тихо ()   10 км    3/0 верхняя 
[Ci fib]
+12.3 +6.8 69 +12  1018.4  -0.2  757  291           
06 23.08.10 070 (В) 10 км    ясно 
+21.7 +5.6 35 +22  1018.2  0.1  757  282  +11.8         
09 23.08.10 070 (В) 10 км    ясно 
+25.1 +3.8 25 +25  1017  -1  756  279           
12 23.08.10 060 (СВ) 10 км    ясно 
+27.3 +1.8 19 +27  1015.3  -1.6  755  276           
15 23.08.10 350 (С) 10 км    ясно 
+26.6 +1.3 19 +27  1014.3  -0.9  754  277           
18 23.08.10 110 (В) 10 км    ясно 
+20.1 +3.2 33 +20  1014.4  -0.1  754  283    +28.2       
21 23.08.10 тихо ()   10 км    ясно 
+16.9 +5.7 48 +17  1014.5  754  285           
00 24.08.10 тихо ()   10 км    ясно 
+15.5 +5.8 52 +16  1014.2  -0.4  754  287           
03 24.08.10 тихо ()   10 км    ясно 
+14.5 +6.4 58 +15  1014.2  754  287           
06 24.08.10 тихо ()   10 км    ясно 
+25.8 +5.8 28 +26  1014.1  0.2  754  277  +13.7         
09 24.08.10 140 (ЮВ) 10 км    ясно 
+28.9 +4.6 21 +29  1013.5  -0.5  754  274           
12 24.08.10 180 (Ю) 10 км    ясно 
+30.9 +2.9 17 +31  1012.3  -1.1  753  272           
15 24.08.10 360 (С) 10 км    1/0 верхняя 
[Ci fib]
+31.3 +3 17 +31  1011.3  -0.9  752  271           
18 24.08.10 070 (В) 10 км    ясно 
+24.8 +4.7 27 +25  1012.1  0.6  753  277    +31.7       
21 24.08.10 тихо ()   10 км    ясно 
+22.4 +4.9 32 +22  1012.1  753  280           
00 25.08.10 тихо ()   10 км    ясно 
+18.3 +8 51 +18  1012.1  -0.2  752  283           
03 25.08.10 тихо ()   10 км    1/0 верхняя 
[Ci fib]
+16.9 +8 56 +17  1012.3  0.2  753  284           
06 25.08.10 020 (С) 65  <0100 м    1/1 <0100 м 
+8.1   1011.8  -0.2  752    +15.7         
09 25.08.10 180 (Ю) 10 км    ясно 
+31.3 +2.1 16 +31  1010.9  -0.8  752  272           
12 25.08.10 тихо ()   10 км    ясно 
+33.4 +8.4 21 +33  1009.2  -1.6  751  268           
15 25.08.10 140 (ЮВ) 10 км    1/1 1000 м 
[Cu hum]
+32.1 +8.1 23 +32  1007.7  -1.5  750  269           
18 25.08.10 060 (СВ) 10 км    1/0 средняя 
[Ac trans]
+22.7 +12 51 +27  1008.4  0.4  750  277    +33.5       
21 25.08.10 тихо ()   10 км    ясно 
+21.3 +13.7 62 +28  1008.5  0.1  750  278           
00 26.08.10 тихо ()   10 км    ясно 
+20.7 +9.2 48 +21  1007.8  -0.7  749  279           
03 26.08.10 тихо ()   10 км    1/0 средняя 
[Ac trans]
+18.1 +9.4 57 +19  1007.6  -0.3  749  281           
06 26.08.10 300 (СЗ) 10 км    ясно 
+27.1 +8.1 30 +27  1007.3  -0.1  749  273  +17.6         
09 26.08.10 280 (З) 10 км    5/0 средняя, верхняя 
[Ac trans|Ci fib]
+32.4 +6.3 20 +32  1006.5  -0.6  749  269           
12 26.08.10 280 (З) 10 км    6/0 средняя, верхняя 
[Ac trans|Ci fib]
+32.4 +6.8 20 +32  1005.7  -0.8  748  268           
15 26.08.10 330 (СЗ) 10 км    6/3 1000 м кучево-дожд., средняя, верхняя 
[Cb calv|Ac trans|Ci fib]
+28.9 +13.8 40 +36  1006.1  0.3  748  270           
18 26.08.10 350 (С) 10 км    8/3 1000 м кучево-дожд., средняя, верхняя 
[Cb calv|Ac trans|Ci fib]
+25 +15.2 55 +34  1008.2  750  274    +33       
21 26.08.10 330 (СЗ) 10 км    3/0 средняя 
[Ac trans]
+21.4 +13.7 61 +28  1009.9  1.6  751  278           
00 27.08.10 350 (С) 10 км    3/0 средняя 
[Ac trans]
+18 +7.5 50 +19  1010.9  0.8  752  283           
03 27.08.10 330 (СЗ) 10 км    8/0 средняя, верхняя 
[Ac trans|Ci fib]
+16.7 +6.5 51 +17  1011.4  0.5  752  284           
06 27.08.10 330 (СЗ) 10 км    9/0 средняя, верхняя 
[Ac trans|Ci fib]
+20.2 +7.5 44 +20  1012.4  1.1  753  281  +16.7         
09 27.08.10 310 (СЗ) 10 км    5/0 верхняя 
[Ci fib]
+25.8 +5.8 28 +26  1012.4  0.2  753  276           
12 27.08.10 330 (СЗ) 10 км    4/0 средняя, верхняя 
[Ac trans|Ci fib]
+27.7 +4.9 23 +28  1011.9  -0.5  753  275           
15 27.08.10 280 (З) 10 км    5/0 верхняя 
[Ci fib]
+25.8 +9 35 +26  1011.7  -0.1  752  275           
18 27.08.10 300 (СЗ) 10 км    3/0 средняя 
[Ac trans]
+22.7 +13.3 55 +28  1012.6  0.8  753  278    +28.2       
21 27.08.10 300 (СЗ) 10 км    ясно 
+19.4 +14.8 75 +29  1012.4  -0.3  753  280           
00 28.08.10 тихо ()   10 км    ясно 
+18 +13.4 74 +24  1012  -0.5  752  282           
03 28.08.10 тихо ()   10 км    4/0 средняя 
[Ac trans]
+17.1 +13.1 77 +23  1011.9  3.1  752  283           
06 28.08.10 170 (Ю) 10 км    8/0 средняя, верхняя 
[Ac trans|Ci fib]
+23.6 +11.8 48 +27  1011.2  -0.5  752  277  +16.8         
09 28.08.10 220 (ЮЗ) 10 км    4/0 средняя, верхняя 
[Ac trans|Ci fib]
+30 +4.5 20 +30  1009.4  -1.6  751  272           
12 28.08.10 200 (Ю) 10 км    ясно 
+32.5 +4.1 17 +33  1007.4  -1.9  749  269           
15 28.08.10 280 (З) 10 км    3/0 верхняя 
[Ci fib]
+29 +10.2 31 +30  1006.6  -0.9  749  271           
18 28.08.10 280 (З) 10 км    4/0 верхняя 
[Ci fib]
+25.4 +8.9 35 +25  1006.5  -0.2  749  274    +33       
21 28.08.10 310 (СЗ) 10 км    4/0 верхняя 
[Ci fib]
+23 +12.4 51 +28  1006.4  -0.2  748  276           
00 29.08.10 тихо ()   10 км    4/0 верхняя 
[Ci fib]
+19.7 +14.5 72 +28  1006.1  -0.3  748  278           
03 29.08.10 тихо ()   10 км    8/0 верхняя 
[Ci fib]
+19.5 +13.2 67 +25  1006.7  0.5  749  279           
06 29.08.10 тихо ()   10 км    4/0 верхняя 
[Ci fib]
+25.2 +15.2 54 +34  1006.4  -0.1  748  273  +17.2         
09 29.08.10 210 (ЮЗ) 10 км    ясно 
+32.2 +13 31 +38  1004.9  -1.3  747  267           
12 29.08.10 240 (ЮЗ) 10 км    ясно 
+34.7 +8.1 19 +35  1003.6  -1.2  747  266           
15 29.08.10 280 (З) 10 км    ясно 
+29.9 +7.1 24 +30  1004  0.2  747  270           
18 29.08.10 290 (З) 10 км    ясно 
+25.7 +9.9 37 +27  1004.7  0.6  747  273    +34.7       
21 29.08.10 290 (З) 10 км    ясно 
+23.4 +17.3 69 +36  1005  0.3  747  274           
00 30.08.10 360 (С) 10 км    ясно 
+19.7 +12.9 65 +26  1006.2  748  279           
03 30.08.10 350 (С) 10 км    ясно 
+17.5 +10.8 65 +20  1008  1.8  749  282           
06 30.08.10 350 (С) 10 км    5/0 средняя 
[Ac trans]
+21.5 +11.4 53 +25  1009.6  1.7  751  278  +17.5         
09 30.08.10 360 (С) 10 км    5/0 средняя 
[Ac trans]
+26.9 +12.8 42 +32  1010  0.5  751  273           
12 30.08.10 350 (С) 10 км    1/1 1000 м 
[Cu hum]
+28.2 +12.5 38 +33  1009.9  751  272           
15 30.08.10 350 (С) 10 км    1/0 средняя 
[Ac trans]
+27.3 +11.5 37 +30  1009.9  -0.1  751  273           
18 30.08.10 020 (С) 10 км    ясно 
+23.5 +6.6 34 +24  1010.9  0.9  752  278    +28.8       
21 30.08.10 030 (СВ) 10 км    4/0 средняя 
[Ac trans]
+21.1 +6.6 39 +21  1011  752  280           
00 31.08.10 040 (СВ) 10 км    4/0 средняя 
[Ac trans]
+19.2 +6.3 43 +20  1011.1  0.1  752  282           
03 31.08.10 060 (СВ) 10 км    8/0 средняя 
[Ac trans]
+19.5 +7.1 45 +20  1011.2  0.1  752  282           
06 31.08.10 080 (В) 10 км    8/0 средняя 
[Ac trans]
+22.6 +8 39 +23  1011.2  0.1  752  279  +18.1         
09 31.08.10 090 (В) 10 км    8/0 средняя, верхняя 
[Ac trans|Ci fib]
+27.5 +9.9 33 +29  1009.9  -1.2  751  273           
12 31.08.10 070 (В) 10  10 км    4/0 средняя, верхняя 
[Ac trans|Ci fib]
+30 +11.2 31 +33  1008.5  -1.3  750  270           
15 31.08.10 070 (В) 10  10 км    ясно 
+28.2 +10.4 33 +30  1007.3  -1.2  749  272           
18 31.08.10 070 (В) 10 км    ясно 
+25.4 +7.1 31 +25  1006.6  -0.8  749  275    +30.7       
21 31.08.10 070 (В) 10-15{16}  10 км    ясно 
+23 +7.8 38 +23  1005.7  -1  748  277           
00 01.09.10 080 (В) 10 км    ясно 
+22.2 +6.6 36 +22  1004.6  -1.1  747  277           
03 01.09.10 080 (В) 10 км    ясно 
+20.2 +6.6 41 +20  1003.6  -1  746  279           
Время (UTC), дата Ветер
(°,м/с) 
Видим.   Явления Облачность Т
(°С)
Тd
(°С)
f(%) Тe
(°С)
Pmin
(гПа)
dP
(гПа)
Po
(мм)
O2
(г/м3)
Тmin Tmax R s Состояние
почвы